Theta_e
350 349 349 348 349 351 352 352 352 352 352 355 355 354 354 354 353 352 351 351 352 352 353 354 353 354 355 355 355 355 355 355 355 355 356 356 357 358 357 357 357 356 355 354 352 353 355 355 355 354 353 354 354 355 354 354 354 354 354 354 353 354 354 353 353 353 353 352 351 351 349 349 349 348 348 347 344 342 340 340 340 338 338 338 337
350 350 349 349 349 350 350 351 352 351 352 354 355 355 354 353 352 352 351 351 352 353 353 354 354 354 354 354 354 354 355 356 356 355 355 356 357 358 358 357 356 355 355 354 352 352 354 354 354 353 353 353 353 354 354 354 354 354 354 353 353 353 353 353 353 353 353 352 352 351 349 349 348 347 347 347 344 342 340 338 338 338 337 337 336
350 350 350 350 350 350 350 351 352 352 352 353 355 354 353 352 352 351 351 352 352 352 352 353 353 354 354 353 353 353 354 355 356 356 355 355 356 356 357 357 357 356 355 354 353 353 353 353 353 353 354 353 352 352 353 353 353 353 353 353 353 353 353 353 353 353 353 353 351 350 349 349 348 346 345 345 344 343 341 339 338 339 339 339 340
351 351 351 351 351 351 351 351 352 352 351 352 354 354 353 352 351 351 351 352 352 352 353 353 353 353 354 354 354 354 354 354 355 355 355 355 356 356 356 356 356 356 356 355 354 354 353 352 352 351 352 353 353 353 353 353 353 353 352 352 352 352 352 352 352 352 352 352 351 349 349 349 348 345 344 344 343 342 341 340 340 340 340 340 341
351 351 352 351 351 351 352 352 352 352 351 351 352 354 353 352 352 352 352 352 353 353 354 354 353 353 353 354 354 353 354 354 354 354 354 354 355 355 356 356 355 355 355 355 354 353 353 352 351 351 351 351 351 351 351 352 352 352 352 351 351 352 351 351 351 351 351 351 349 348 347 348 347 344 344 344 344 342 341 341 341 341 341 340 341
351 352 352 352 352 352 352 352 352 352 352 351 351 352 353 353 352 352 352 353 354 354 354 354 353 353 353 353 352 352 352 352 353 353 353 354 354 355 355 355 354 354 353 353 353 354 353 352 351 351 351 350 350 350 350 351 351 351 352 351 351 352 351 351 350 350 350 350 349 349 348 347 346 345 344 345 345 344 343 342 342 341 342 342 342
353 353 353 353 352 352 352 353 353 353 353 352 351 351 352 353 353 353 352 353 353 354 353 354 353 353 353 352 351 351 350 350 351 351 351 352 353 354 354 354 354 354 353 352 353 353 353 353 352 351 350 351 351 351 350 350 350 350 350 350 351 351 351 351 350 350 350 349 349 349 348 347 347 346 345 345 345 345 344 345 344 342 342 343 344
354 355 354 354 354 353 353 354 354 354 354 354 353 353 352 352 351 351 352 352 353 353 352 353 353 353 353 352 351 351 350 350 350 350 350 350 351 352 352 353 353 353 353 352 353 353 353 352 352 351 351 350 350 351 351 351 351 351 351 351 351 351 351 351 351 350 350 349 349 348 348 347 347 346 345 344 344 343 343 345 346 344 343 344 344
354 353 353 353 354 354 354 354 354 354 354 354 354 354 353 353 352 352 352 352 353 354 353 353 354 353 353 352 352 351 350 350 349 349 349 349 349 350 350 351 351 351 351 351 351 352 352 352 351 351 351 350 350 350 350 350 351 351 351 351 351 352 352 352 352 351 350 349 348 348 347 347 346 346 345 344 343 343 342 345 346 344 344 345 344
350 349 349 351 353 352 350 352 353 354 354 353 353 353 353 354 354 353 353 354 354 354 354 353 353 352 351 351 351 350 350 349 349 349 349 349 349 349 349 349 350 350 350 349 349 349 350 350 351 350 350 350 349 349 349 350 350 350 350 350 351 352 352 352 352 351 350 349 348 348 347 346 346 346 345 343 342 342 341 343 345 344 345 346 346
348 347 347 348 349 348 347 350 353 353 353 353 353 353 353 352 353 353 354 353 354 353 352 352 351 351 350 349 349 349 349 349 349 348 349 349 348 348 348 348 349 349 349 349 349 348 348 349 350 350 350 350 349 349 349 348 349 350 350 350 350 351 352 352 352 352 351 350 349 349 347 347 347 345 344 343 342 342 341 342 344 345 346 348 348
346 347 347 346 347 347 346 347 348 349 350 351 351 351 351 351 351 351 352 353 352 351 351 350 350 349 348 348 347 347 347 347 348 347 348 348 349 348 348 348 348 348 348 348 348 348 348 348 348 348 349 349 348 349 349 349 349 350 350 350 350 350 351 351 352 352 352 351 351 350 348 348 347 345 344 343 343 342 342 342 344 345 346 347 348
345 345 346 346 347 348 348 347 347 348 349 350 350 350 349 349 349 348 349 351 352 352 352 351 351 350 349 348 347 347 347 346 346 346 347 348 349 349 348 347 347 347 347 347 347 348 348 348 348 348 347 348 349 349 349 350 350 351 351 351 351 351 350 351 350 350 350 351 350 350 349 348 346 345 344 344 343 343 343 344 344 345 346 347 347
341 342 342 343 344 346 346 347 347 348 349 350 351 351 350 350 349 348 349 350 350 351 352 351 352 351 351 350 349 349 348 347 348 348 348 349 350 350 349 348 347 347 347 346 347 347 348 348 348 348 348 348 349 349 350 350 351 351 351 351 351 351 351 350 350 350 349 349 349 348 348 347 346 345 344 344 344 344 344 344 345 345 346 346 346
334 335 337 338 339 340 340 341 341 342 344 346 347 348 348 349 349 349 351 351 351 352 352 352 352 351 351 351 350 350 349 349 350 350 350 351 351 351 349 348 347 347 346 346 347 347 348 349 349 349 349 349 349 349 350 351 351 351 351 351 351 351 350 351 351 350 349 349 348 348 348 347 346 345 345 345 344 344 344 345 345 346 346 346 346
328 328 330 332 333 334 336 337 337 337 338 339 340 342 343 344 345 347 349 351 352 353 353 353 353 352 352 352 352 351 351 351 351 351 352 353 353 352 351 349 348 348 347 347 348 348 349 349 349 350 349 350 350 350 350 350 350 350 350 350 351 351 352 352 352 351 350 348 348 348 347 347 347 346 345 344 344 344 345 345 346 347 346 345 346
325 325 325 326 328 330 332 333 331 331 333 334 335 337 338 340 342 344 345 347 350 353 355 354 354 354 354 353 353 353 353 353 353 353 353 353 353 353 352 351 351 350 350 350 350 351 351 351 351 351 351 351 351 351 350 350 350 349 349 350 350 350 352 352 352 351 351 349 347 346 346 346 346 345 345 345 346 347 347 346 347 348 346 346 347
323 322 323 323 324 325 327 326 325 326 328 329 330 331 332 334 337 340 342 344 345 348 352 353 353 354 354 355 355 354 354 354 354 354 354 353 353 352 352 352 352 352 352 352 352 352 352 352 352 351 351 351 351 350 350 350 350 350 350 350 350 351 353 353 352 352 351 349 347 346 346 346 346 347 347 348 349 350 349 348 350 349 346 346 348
320 321 321 322 322 323 323 322 322 323 325 326 328 329 328 329 331 334 338 342 343 346 348 349 350 351 352 352 353 354 354 355 354 354 353 353 353 353 353 353 353 353 353 353 353 352 352 352 351 351 351 351 351 351 351 352 352 352 352 351 351 352 353 353 351 350 349 348 347 347 347 347 348 349 350 350 351 351 351 351 352 350 348 348 348
318 319 320 321 322 323 322 321 320 323 327 328 328 329 329 329 330 330 332 335 338 341 344 346 349 350 349 348 349 351 351 352 353 353 353 352 352 352 352 352 352 352 352 352 352 352 353 352 352 352 352 351 351 352 351 352 351 351 351 351 351 352 353 352 351 350 349 349 349 349 349 349 350 350 351 351 351 352 352 352 353 352 351 350 350
316 317 318 319 321 322 322 322 321 323 326 327 326 327 328 329 331 333 334 335 337 340 344 346 346 343 340 340 342 343 343 343 344 346 350 352 353 352 352 352 351 351 351 351 351 351 351 351 350 350 350 350 350 350 349 349 349 349 349 349 349 348 348 350 351 352 351 351 351 351 351 351 351 351 351 351 351 351 351 352 353 354 354 352 351
315 315 316 317 319 321 321 322 322 323 324 325 326 326 326 326 328 332 335 337 339 341 343 342 336 330 328 331 332 333 335 335 332 332 336 342 345 348 350 351 351 351 351 350 348 348 348 348 348 347 347 347 346 345 344 343 344 345 346 345 344 343 343 344 347 350 352 353 353 352 352 352 352 352 351 351 351 351 350 352 354 355 355 354 353
315 314 315 316 318 320 320 320 321 321 322 322 324 325 325 325 326 327 329 330 331 332 333 331 327 325 326 328 328 329 330 330 328 328 329 330 333 337 340 343 344 345 344 342 341 341 341 341 342 342 341 340 338 336 335 335 336 337 338 338 339 339 340 341 341 343 349 352 351 350 352 352 352 352 351 351 351 351 352 353 355 356 355 354 354
315 315 315 315 316 318 320 319 319 319 319 320 321 322 323 323 324 325 326 326 326 326 326 325 325 325 326 325 326 327 328 327 328 328 328 328 329 329 331 332 333 334 334 334 334 334 334 334 334 333 333 333 333 333 333 334 335 335 335 337 338 339 339 339 338 341 346 349 348 347 349 350 350 351 351 351 351 352 353 354 355 355 354 353 353
315 315 315 315 315 317 318 317 317 317 317 317 318 319 320 321 322 323 324 324 324 324 324 324 324 324 323 323 324 325 325 326 326 327 326 327 327 328 328 328 327 328 329 330 331 331 331 331 331 331 333 336 337 338 339 340 341 342 343 344 344 343 342 342 343 345 345 346 346 347 347 348 349 349 349 350 351 351 351 352 353 353 352 352 352
314 314 314 314 314 315 316 316 316 315 315 316 316 316 317 318 319 321 322 323 323 323 323 323 323 323 323 323 324 324 325 325 325 325 325 325 325 325 326 326 325 326 328 329 330 330 330 332 334 338 340 342 343 343 342 343 344 345 346 347 347 347 347 346 346 346 345 345 346 346 347 347 348 348 348 348 348 349 349 350 350 351 351 351 352
313 313 313 314 314 314 315 315 315 315 315 315 316 316 317 317 318 319 321 321 321 321 322 322 323 323 323 323 324 324 325 324 324 324 323 323 324 324 325 325 324 325 327 329 330 330 332 336 339 341 342 342 343 342 342 343 343 344 345 346 347 347 348 348 348 347 347 347 347 347 348 348 348 349 349 348 348 348 349 349 349 350 350 351 351
312 313 314 314 314 315 315 315 315 315 315 315 316 316 317 317 318 318 319 319 319 319 320 320 321 322 323 323 323 324 324 323 322 322 322 323 323 324 324 324 324 324 325 329 331 331 331 333 336 337 339 340 341 341 342 342 343 344 345 345 346 347 347 347 347 348 348 348 348 348 348 349 348 349 349 348 349 349 349 349 349 349 350 350 351
313 314 314 315 315 316 316 316 316 316 315 315 315 316 316 316 316 317 317 317 317 317 318 318 319 320 321 322 322 323 324 322 321 322 322 322 323 324 325 325 324 324 325 328 330 329 327 329 333 336 336 338 339 340 340 340 340 340 341 341 342 343 344 344 344 343 343 344 345 347 347 348 348 348 348 348 348 349 349 349 349 349 350 350 351
313 314 314 315 316 316 316 316 316 316 315 315 315 315 315 315 315 315 316 316 316 317 317 317 317 318 319 320 320 321 322 322 321 322 322 321 321 322 324 326 325 325 326 329 329 327 327 330 333 335 336 337 336 335 333 331 330 329 330 332 333 334 336 337 336 336 337 339 341 343 345 346 347 347 347 348 348 348 348 349 349 349 349 350 350
312 312 313 314 315 316 315 315 316 316 316 315 315 315 315 315 314 314 315 315 315 315 316 316 317 317 317 318 319 319 320 321 322 323 322 320 319 320 323 328 329 327 328 329 328 328 329 331 333 333 332 331 328 325 322 322 320 319 320 321 321 322 324 326 328 329 332 335 338 339 340 342 344 345 345 346 346 347 348 348 349 349 349 350 350
309 310 311 312 314 315 314 314 314 315 315 315 315 315 315 316 315 315 315 315 315 316 316 316 316 317 317 318 318 319 319 321 322 322 321 320 320 319 322 327 330 329 328 328 329 329 330 330 329 326 323 322 320 318 318 318 317 317 317 316 317 317 318 319 322 325 328 331 334 335 336 338 340 341 342 344 345 346 348 348 349 349 349 350 350
306 308 309 311 312 313 313 312 313 313 313 313 314 315 315 315 316 316 316 316 316 316 316 317 317 317 317 318 318 319 319 320 321 321 320 319 320 320 321 324 328 328 327 327 327 327 326 325 323 321 319 318 318 317 317 317 316 316 316 316 316 316 316 317 319 322 324 326 328 329 331 334 336 338 339 342 344 345 347 348 349 349 350 350 350
305 305 307 309 310 311 311 311 311 311 311 312 312 313 313 314 315 317 317 317 317 316 316 316 317 317 318 318 318 319 319 319 320 321 320 319 320 320 321 323 325 326 326 325 324 323 322 321 320 319 318 318 317 316 316 316 315 315 315 315 315 316 317 318 319 321 322 323 324 326 328 331 332 334 336 339 341 343 345 347 348 348 349 349 350
304 304 305 306 308 309 309 309 309 310 310 310 311 312 312 312 313 316 317 317 317 317 316 315 316 316 317 317 318 318 318 319 319 320 320 320 320 321 321 323 324 325 324 323 322 321 321 320 319 318 318 317 316 316 315 315 315 314 314 315 315 316 317 318 319 319 320 321 322 324 326 327 329 331 333 335 337 340 343 345 346 347 348 348 348
303 303 303 304 305 307 307 308 308 308 309 309 310 311 311 310 312 315 316 316 316 316 316 315 315 315 315 316 316 316 317 317 318 319 320 320 321 322 323 323 324 324 323 322 322 321 320 319 318 317 317 316 315 315 314 314 314 314 314 314 315 316 317 318 318 318 319 319 321 322 323 324 326 328 329 331 334 337 340 342 344 345 345 345 345
303 303 303 304 305 306 306 306 307 307 308 309 309 310 310 311 313 315 315 314 315 315 315 315 315 315 315 315 314 315 315 316 317 318 319 319 321 323 324 324 323 323 322 322 321 321 320 319 319 317 316 315 314 314 313 313 313 313 313 313 314 314 315 316 316 317 318 319 320 320 321 323 324 324 325 327 330 332 333 335 336 338 339 340 340
302 302 303 304 306 306 305 305 306 307 309 310 310 310 310 312 313 313 312 312 312 313 313 314 314 315 315 315 314 314 314 314 315 316 317 318 319 321 323 323 323 322 322 321 321 320 320 319 318 317 316 315 314 313 313 313 313 313 313 313 313 313 314 314 315 316 316 317 318 319 320 320 321 322 323 324 325 325 326 328 329 330 332 333 335
302 302 303 304 305 305 304 305 307 308 309 309 309 310 311 311 310 310 310 310 311 311 312 313 314 314 314 314 313 312 312 313 314 314 315 316 317 318 320 321 322 321 321 321 321 320 319 318 318 317 315 314 313 312 312 312 311 312 312 312 312 312 313 313 313 314 314 315 315 316 317 317 319 320 320 321 321 321 322 323 323 324 326 328 330
301 301 302 304 304 304 304 305 307 307 308 308 309 309 308 308 308 308 308 309 310 311 311 311 311 312 312 311 311 311 311 312 312 312 312 313 314 316 318 319 320 321 321 321 320 319 318 318 317 316 314 313 312 312 311 310 310 310 310 310 310 311 311 311 311 311 312 313 313 314 314 315 316 317 317 317 318 318 319 319 320 321 322 324 325
300 301 302 302 302 302 303 304 305 305 306 306 306 306 306 306 307 307 308 308 308 308 308 308 309 309 309 309 309 310 310 311 311 311 310 310 310 311 313 316 318 320 320 321 320 319 318 317 316 315 314 313 312 311 310 309 308 308 308 308 308 309 310 310 310 310 310 311 311 312 312 313 313 313 314 314 314 315 316 317 317 318 318 319 320
300 301 301 301 302 302 302 302 303 303 303 303 304 304 305 306 306 306 306 306 306 306 307 308 308 308 308 307 308 308 309 310 309 309 310 310 309 309 310 312 315 318 320 320 320 319 317 316 315 314 313 312 311 311 310 309 308 307 306 306 307 307 308 308 308 308 309 309 310 310 311 311 310 310 310 311 311 312 313 313 314 314 315 316 317
300 301 301 301 301 301 301 301 301 301 301 302 303 304 305 305 305 305 305 305 306 306 307 307 307 307 306 307 307 307 307 306 306 307 308 309 309 309 309 309 311 315 318 319 318 318 317 315 314 313 311 311 310 310 309 309 308 307 306 306 306 306 307 307 307 308 308 308 308 309 309 309 309 308 308 309 309 309 309 309 310 311 313 314 315
298 298 298 299 299 299 299 300 300 301 302 302 303 304 304 304 304 304 304 305 305 305 305 305 305 305 306 306 306 305 304 304 304 306 306 306 307 308 309 310 311 313 315 316 316 315 314 313 312 311 310 309 309 308 308 308 307 306 305 305 305 305 306 306 306 307 307 307 307 308 308 308 307 307 307 307 307 307 307 307 308 309 310 312 313
295 295 296 298 298 299 300 300 301 301 302 302 303 303 303 303 303 303 303 303 303 303 303 304 304 304 304 304 303 303 303 303 304 305 305 305 304 305 307 308 310 311 312 312 312 312 311 310 309 309 308 308 307 307 308 308 307 306 305 304 304 305 305 305 306 306 306 306 306 306 306 306 306 306 305 305 305 305 306 306 306 307 309 310 312
295 296 297 298 299 299 300 300 301 301 302 301 301 301 301 301 301 301 301 301 301 301 301 301 302 301 301 300 300 300 301 302 302 303 304 305 304 303 304 305 306 308 308 308 308 308 308 307 307 306 306 306 305 305 306 307 306 305 304 304 304 304 304 304 304 304 304 304 304 304 304 304 304 304 304 304 304 304 304 304 305 306 307 309 311
295 297 297 298 298 298 299 299 299 300 299 299 299 299 299 299 299 299 299 299 299 299 299 299 299 299 298 298 298 299 299 300 301 302 303 303 304 303 303 303 304 305 305 305 306 305 305 305 305 304 304 304 303 303 304 305 304 304 304 304 304 304 304 303 303 302 302 302 301 301 301 301 301 301 301 301 302 302 302 303 304 305 306 308 309
295 296 296 296 297 297 297 297 297 297 296 296 296 296 296 297 297 297 297 297 297 297 297 297 297 297 297 297 298 298 299 299 300 301 302 302 303 303 303 303 303 303 303 303 304 304 303 303 303 303 303 303 302 302 302 302 302 303 303 303 303 303 303 302 302 301 301 301 300 299 299 299 299 300 300 300 301 301 301 302 304 305 306 307 309
294 295 295 295 295 295 295 295 295 294 294 294 294 294 294 294 295 295 295 295 295 295 296 296 296 297 297 297 298 298 299 299 300 301 301 302 302 302 302 302 302 302 302 302 302 302 302 302 302 301 301 301 301 301 301 301 301 302 302 302 302 302 302 301 301 301 301 301 300 299 299 299 299 300 300 300 301 301 301 301 303 304 305 307 309
293 294 294 294 294 294 294 293 293 293 293 293 293 293 293 293 293 293 293 293 294 294 295 295 295 296 296 297 297 298 299 299 300 300 301 301 301 301 301 301 301 301 300 300 300 300 300 300 300 300 299 299 299 300 300 300 300 300 301 301 301 301 301 301 301 301 301 300 299 298 298 299 299 300 301 301 301 301 301 301 302 304 306 308 310
293 293 293 293 293 293 293 293 293 292 292 292 292 292 292 292 292 292 292 292 293 293 293 294 294 294 295 296 297 298 298 299 299 300 300 300 300 300 299 299 299 299 299 299 298 298 298 298 298 298 298 298 299 299 299 299 299 300 300 300 300 300 300 300 300 300 300 300 298 298 298 299 300 301 302 302 302 302 302 303 304 305 307 310 312
Wind_Speed
29 29 28 28 28 28 26 25 24 23 21 20 19 18 17 16 16 15 14 14 14 14 14 13 13 12 12 12 12 12 13 13 13 13 13 13 13 12 12 11 12 12 11 11 10 10 11 11 11 9 9 10 9 9 8 8 8 8 8 9 9 9 9 7 7 11 14 15 14 15 14 14 15 14 15 16 16 17 18 18 17 17 18 18 18
29 30 29 29 29 29 28 27 25 24 23 22 20 19 17 16 16 15 15 15 15 14 14 14 14 13 13 14 14 14 14 14 14 15 14 14 14 14 13 13 13 13 13 12 12 11 12 12 11 10 10 10 10 10 10 9 9 10 10 11 11 10 9 9 8 10 14 16 17 17 15 15 16 17 17 18 18 19 19 18 18 18 18 18 18
28 29 29 29 29 29 28 27 26 25 24 24 22 20 19 17 17 17 16 15 15 15 15 15 15 15 14 14 14 14 14 13 14 14 15 15 14 14 14 14 14 14 14 14 13 12 12 13 13 11 11 11 11 11 11 11 11 12 13 13 13 12 10 11 10 10 14 17 18 18 18 17 18 18 18 19 20 20 20 19 18 18 18 18 19
25 26 27 28 28 28 28 27 27 26 26 26 25 23 20 19 18 18 17 17 16 15 15 15 16 16 15 14 13 13 13 13 13 14 15 15 15 15 14 15 16 16 16 15 14 13 13 14 14 13 12 13 13 12 12 12 13 14 15 15 15 15 14 13 13 12 13 16 19 20 19 20 20 20 20 21 22 21 21 21 21 20 19 19 20
25 26 27 27 27 27 27 27 27 27 26 27 27 26 23 21 21 20 19 18 17 16 15 15 16 17 17 16 15 14 13 13 14 14 15 16 16 16 16 16 17 17 17 17 16 15 14 14 13 12 13 14 14 14 13 14 15 15 16 16 15 15 15 15 16 15 14 17 20 21 20 21 22 22 22 23 23 24 24 24 23 22 22 23 22
25 25 26 26 27 27 27 27 27 27 26 26 27 27 26 24 22 22 21 20 19 18 17 16 17 17 17 17 17 17 16 15 15 15 16 17 17 18 18 18 18 18 18 18 17 16 16 16 14 13 13 14 15 15 15 15 16 16 16 16 15 15 16 16 17 17 17 18 20 21 22 22 23 24 24 23 24 26 27 27 26 25 25 26 26
24 24 25 26 27 27 27 28 27 26 25 25 25 26 26 25 24 23 22 21 21 20 19 19 19 18 18 19 19 19 18 18 17 17 17 17 18 19 19 19 19 19 18 18 18 18 18 18 17 17 16 16 16 16 16 16 16 17 17 17 17 17 18 18 19 19 19 19 20 22 23 23 24 24 24 24 25 26 25 24 25 27 27 27 28
21 22 23 23 24 25 25 25 24 24 23 23 23 24 25 25 25 24 23 22 22 21 20 19 19 18 19 19 20 20 20 20 20 19 18 18 19 20 21 21 21 20 20 19 19 19 20 20 20 19 19 18 18 18 17 17 18 19 19 18 18 19 20 20 21 21 20 20 21 22 23 24 25 25 26 25 25 25 23 20 22 27 29 27 28
13 13 14 15 16 17 17 17 17 18 18 19 20 21 23 24 24 24 23 24 23 22 20 19 18 18 18 18 19 20 21 21 21 21 20 20 20 21 22 23 23 23 22 22 21 21 21 21 21 21 20 20 20 20 19 19 19 20 20 20 20 21 21 21 21 21 21 20 21 22 22 24 26 26 26 26 24 25 25 23 24 27 29 28 28
9 7 9 14 13 9 8 12 16 17 17 16 16 16 17 20 22 24 24 23 23 22 21 20 19 18 17 17 18 19 20 21 21 21 20 20 21 21 22 23 24 24 24 24 24 24 24 24 23 22 22 22 21 21 21 21 21 22 22 22 22 22 23 23 23 23 21 21 22 22 20 22 27 27 26 27 28 28 28 27 25 27 27 27 27
9 7 11 17 14 7 7 15 20 19 18 17 17 17 16 14 17 22 23 23 22 22 21 20 20 19 18 18 17 18 19 20 20 20 19 19 20 21 22 23 24 24 25 25 26 26 26 26 25 24 24 23 22 22 22 22 22 23 23 23 23 23 24 24 25 25 23 22 24 23 21 23 28 29 28 29 31 30 29 27 26 26 25 21 21
8 9 13 14 10 7 11 17 19 17 16 16 17 18 19 16 15 18 21 22 22 21 21 21 21 20 19 19 19 19 20 20 19 19 19 18 19 20 22 23 24 25 25 25 25 25 26 26 26 26 25 24 24 23 23 22 22 23 23 23 23 23 24 24 26 27 26 25 25 25 25 26 29 30 30 30 30 29 29 28 27 26 25 22 21
15 12 8 6 5 6 7 11 12 11 11 11 12 13 15 17 17 18 20 21 21 21 21 21 21 21 20 21 21 21 22 21 20 20 19 18 18 19 21 22 23 24 25 25 26 25 25 25 25 26 25 25 25 24 24 24 24 24 25 25 25 26 25 25 25 26 27 28 28 29 30 29 29 30 31 30 28 27 27 28 28 27 26 25 26
20 19 18 16 16 14 11 8 6 4 2 2 4 6 8 12 16 18 20 20 20 20 20 20 20 19 19 19 20 20 20 20 19 19 18 18 17 18 20 21 22 23 24 25 26 25 25 25 26 26 25 25 25 25 25 26 26 26 27 27 28 28 28 28 27 27 27 28 29 30 31 31 31 32 33 31 29 28 28 28 28 27 28 29 30
23 22 22 21 20 19 17 15 14 12 10 9 7 4 2 2 6 10 14 16 17 17 17 17 17 17 16 17 17 18 18 17 16 15 15 15 16 17 18 20 21 22 23 24 25 25 25 25 26 26 26 25 25 25 26 26 26 27 27 27 28 28 29 29 29 29 29 28 29 30 31 31 32 33 33 31 30 30 29 29 28 28 30 31 31
24 24 24 23 21 20 18 17 16 14 14 13 11 9 7 5 3 2 6 10 12 13 13 12 12 12 12 13 14 15 14 14 13 13 12 13 13 14 15 16 17 18 19 20 20 21 21 22 23 24 25 24 24 23 23 23 23 24 25 25 26 28 29 29 29 30 30 30 30 30 30 30 31 31 31 30 30 29 28 29 29 28 28 27 28
23 24 24 24 22 19 16 15 15 13 13 14 12 9 6 4 3 2 3 5 8 8 7 8 7 8 8 9 11 11 11 11 12 12 11 11 11 11 12 12 13 13 13 13 13 14 14 15 17 18 19 19 18 18 18 19 21 22 23 24 26 28 30 30 29 30 30 29 29 28 28 28 27 27 27 27 26 26 27 29 29 27 25 20 20
23 23 23 22 21 19 16 16 17 15 13 13 12 9 6 4 2 2 3 4 6 5 3 2 2 3 4 5 7 8 9 9 10 10 10 10 9 9 10 10 11 11 11 10 10 10 11 11 12 13 14 14 15 15 16 17 19 19 20 21 23 26 28 28 28 28 28 28 27 26 25 25 24 24 24 24 24 24 26 28 27 25 24 20 20
22 22 21 21 20 20 18 17 17 17 15 13 12 11 8 6 4 4 4 4 5 5 5 3 1 0 1 3 4 5 5 5 5 6 7 8 8 8 9 10 11 11 12 11 11 11 11 11 10 10 11 12 13 13 14 15 17 17 18 18 21 24 25 24 24 25 26 26 27 26 26 25 25 25 25 26 27 27 28 29 27 24 25 26 26
19 19 19 20 20 19 19 17 16 16 16 16 15 13 9 6 4 3 6 7 7 7 5 3 2 2 2 2 2 2 2 2 2 2 3 5 6 7 7 8 9 9 9 10 10 10 9 9 9 9 10 11 12 13 13 14 15 16 16 17 19 21 21 20 21 22 24 26 27 28 28 28 28 29 29 29 29 29 29 29 28 26 26 28 30
16 16 16 17 18 18 18 17 15 15 15 15 16 16 14 12 10 5 3 6 6 5 4 4 6 7 7 8 9 9 9 10 10 8 5 3 2 2 2 3 4 5 6 6 6 6 6 7 7 8 9 10 11 12 13 13 14 16 17 18 19 19 19 20 21 22 24 27 28 30 30 30 31 31 31 31 31 30 30 29 28 28 27 27 29
14 14 15 15 15 15 16 16 15 14 14 13 14 15 16 16 15 13 10 8 8 8 8 9 11 11 9 8 10 10 9 10 12 13 11 8 6 6 5 5 5 3 3 4 5 5 6 7 8 10 12 13 14 15 15 15 16 17 18 19 20 20 21 22 22 23 24 27 28 31 33 33 34 34 34 34 33 31 29 28 27 27 27 27 27
12 13 14 15 14 14 15 15 14 13 13 13 13 14 15 15 16 15 14 14 14 14 13 12 12 12 10 10 10 9 8 7 7 9 10 9 8 7 6 6 6 5 5 5 6 7 8 9 11 12 14 15 15 16 16 16 16 17 18 18 19 21 22 23 24 25 26 27 26 27 29 30 33 35 35 34 33 30 28 26 25 24 25 26 27
12 13 13 14 14 14 14 14 14 13 13 13 12 13 14 14 15 15 14 15 15 15 14 12 11 11 11 11 10 9 10 10 8 6 7 8 8 8 7 7 6 6 6 6 7 7 9 10 11 13 14 14 14 14 14 14 14 15 15 16 17 18 20 22 24 25 24 24 23 23 25 26 27 30 31 30 29 28 26 25 25 25 26 27 28
12 13 13 13 13 12 13 13 13 13 13 13 13 13 13 13 13 14 13 14 14 14 14 13 13 12 12 12 12 11 10 10 9 8 8 9 8 8 9 9 9 8 8 7 8 8 10 11 12 12 12 12 11 11 11 11 11 11 11 11 13 15 16 19 21 21 20 21 20 22 25 25 24 26 28 28 28 28 27 26 27 28 28 28 29
11 12 11 11 11 11 11 12 12 12 12 13 12 12 12 12 12 13 12 12 13 13 13 13 13 13 13 14 14 13 12 10 10 9 9 10 10 10 10 10 10 10 10 9 9 10 11 11 11 9 8 7 7 8 10 10 10 9 10 10 11 13 15 17 18 19 19 21 21 22 24 24 25 27 27 27 28 28 27 27 29 30 28 26 27
10 10 10 10 9 9 10 11 11 11 12 12 12 11 11 11 11 12 12 12 12 12 13 13 13 13 14 14 13 13 12 12 12 12 12 12 12 13 12 12 12 12 12 11 12 12 11 9 7 6 6 6 7 9 10 11 11 11 11 12 13 15 17 18 18 18 19 22 23 23 24 24 25 27 27 26 27 27 26 25 25 26 25 23 23
9 9 8 8 8 9 9 9 10 10 11 11 11 12 12 12 11 11 12 12 12 12 12 12 13 13 13 13 13 12 12 12 13 15 16 16 16 16 16 15 14 14 13 13 12 11 9 8 7 7 7 8 9 10 11 12 13 13 14 15 15 16 18 19 19 19 20 22 23 24 25 24 24 25 26 25 26 26 25 23 21 21 21 20 20
8 8 7 7 8 9 9 9 8 9 9 9 9 9 10 11 10 9 9 9 10 10 10 10 11 11 11 12 13 13 13 12 12 14 15 16 17 17 17 17 16 14 13 11 10 9 8 8 8 8 9 9 10 11 12 14 15 15 16 17 17 17 18 19 19 19 21 21 21 22 23 24 24 24 23 23 24 25 24 22 22 22 20 19 19
7 8 8 8 9 9 10 9 8 8 8 8 7 7 7 8 8 8 8 8 8 8 8 9 10 10 10 10 10 12 13 12 12 12 13 14 15 17 16 16 15 13 10 8 7 7 7 7 8 8 9 10 10 13 16 18 20 22 22 22 21 21 21 22 22 23 24 23 21 22 22 22 23 24 23 22 24 25 24 22 22 22 21 19 19
6 7 8 8 8 9 10 10 9 8 8 7 8 8 8 7 7 7 7 8 8 8 8 8 9 10 11 10 10 9 10 11 11 10 11 12 15 17 16 14 12 8 5 4 5 6 6 6 7 9 9 10 12 15 17 19 21 24 25 26 26 26 26 26 27 27 26 24 22 22 23 22 22 23 23 23 24 24 24 23 22 22 22 21 20
6 6 8 8 8 7 8 9 9 9 9 8 8 9 10 10 10 8 7 7 7 7 7 7 7 8 9 11 11 11 11 11 9 8 10 12 15 16 17 15 10 6 3 4 4 4 5 6 7 8 10 11 13 15 16 17 19 21 23 25 26 26 26 26 27 27 25 22 21 22 22 22 22 23 22 22 23 23 23 22 21 21 22 22 21
7 7 7 7 6 6 7 8 8 8 9 10 9 9 10 12 12 11 10 9 7 6 5 5 6 7 7 8 10 11 12 11 9 9 11 13 14 14 15 14 10 7 6 6 5 5 5 6 6 8 9 11 12 14 16 17 19 20 21 22 24 25 25 26 25 25 24 23 22 22 21 22 23 24 23 22 22 22 23 23 22 22 21 21 20
8 7 7 6 5 6 7 7 8 8 9 10 10 10 11 12 11 11 11 11 10 9 8 6 7 7 7 7 8 9 10 10 10 10 12 13 12 12 12 11 9 7 5 5 5 6 5 5 6 7 9 11 13 15 16 18 20 21 22 23 24 24 24 24 24 23 23 24 23 22 22 22 23 24 24 24 24 24 23 23 23 22 21 20 19
9 8 6 4 4 4 5 7 8 9 10 10 10 10 12 13 12 10 10 11 11 11 11 10 9 9 9 9 10 10 10 11 10 10 10 12 12 11 10 9 8 5 4 4 6 6 5 5 5 6 8 11 13 14 16 18 20 21 22 23 24 23 22 22 22 22 22 21 21 21 22 22 22 21 23 25 26 25 24 23 22 21 20 19 20
10 9 7 5 4 5 6 7 8 9 10 11 10 10 11 12 11 10 10 11 10 10 11 12 12 11 10 10 11 12 12 12 11 10 10 11 12 11 10 8 6 5 5 6 7 7 7 7 7 8 9 11 12 14 16 18 20 20 21 22 22 20 19 20 21 21 21 21 21 21 22 21 20 20 21 24 25 25 25 24 22 21 20 20 21
9 9 8 7 6 6 7 8 9 9 9 9 9 11 11 10 9 9 9 10 11 11 11 13 13 12 11 12 13 14 14 13 12 11 10 10 10 10 10 9 7 7 8 10 10 10 10 10 10 11 12 13 14 16 17 18 20 21 22 22 21 21 20 20 20 20 20 21 21 21 21 20 20 21 21 23 24 24 24 25 24 24 24 23 23
8 8 8 8 7 8 9 9 9 7 6 7 8 9 8 7 8 9 10 11 11 11 12 12 12 11 12 14 16 17 16 15 14 12 12 11 11 10 11 12 12 12 14 14 14 13 12 11 12 12 14 15 17 17 18 19 20 21 23 23 23 23 22 21 19 19 19 20 20 20 21 21 22 21 20 21 22 23 23 24 25 26 26 24 23
8 8 7 7 7 8 9 9 8 7 7 7 7 7 6 6 8 9 10 11 11 11 11 10 10 10 12 14 17 18 19 17 16 16 16 16 14 13 13 14 16 17 18 17 15 13 12 12 13 13 15 17 18 18 19 19 20 22 23 24 24 24 22 20 20 20 20 19 19 19 20 21 21 21 20 20 20 21 21 22 23 23 24 24 23
9 8 7 7 7 8 8 7 7 7 7 8 7 7 7 8 9 9 10 10 10 9 9 9 10 11 12 14 16 18 18 18 18 19 19 19 18 17 16 16 17 19 20 19 16 13 13 14 14 15 16 18 19 19 19 20 21 22 23 24 25 24 22 20 20 20 19 19 19 20 20 20 20 20 20 20 19 20 21 21 21 21 21 22 23
8 8 7 7 7 7 7 6 6 7 8 8 8 8 8 8 9 9 9 8 8 8 9 10 11 11 12 13 15 16 17 17 18 19 20 20 20 20 19 19 18 19 20 19 17 15 14 15 15 16 17 19 20 20 21 22 23 23 24 24 23 22 20 19 19 19 18 19 19 19 19 19 20 20 21 21 20 20 20 21 21 20 20 21 22
7 8 7 7 7 7 6 6 7 7 7 7 7 8 8 8 8 9 9 9 10 10 11 11 10 10 11 13 14 15 15 15 16 17 18 19 21 21 21 20 19 19 20 20 19 17 17 17 17 17 18 19 20 21 23 24 25 25 25 24 20 17 17 18 18 18 18 18 18 19 20 20 21 21 22 22 21 20 20 21 21 22 22 22 22
7 7 7 7 7 7 7 7 7 7 7 7 7 8 8 9 9 10 10 11 11 11 11 11 11 12 12 13 13 13 15 16 17 17 17 18 20 21 22 22 20 19 20 21 20 19 19 18 18 18 19 19 19 21 23 25 26 27 27 24 20 17 17 17 17 17 17 18 19 20 21 20 20 21 21 22 22 22 22 22 22 22 22 23 23
10 9 8 6 6 6 6 6 7 7 7 7 8 8 8 9 9 10 11 11 11 11 11 11 12 13 13 12 13 14 16 18 19 18 17 18 20 21 21 21 20 19 20 20 19 17 17 18 18 18 19 19 20 22 24 25 26 27 27 24 21 20 19 18 17 17 18 19 21 21 21 20 20 21 21 22 23 23 22 22 22 23 25 25 25
11 9 6 5 5 6 6 6 7 7 8 8 8 8 8 9 9 10 11 11 11 11 12 12 12 12 12 13 15 16 17 18 18 17 17 19 21 21 21 20 19 18 18 17 16 16 17 17 18 19 20 20 21 22 24 26 27 27 27 25 24 22 21 21 20 20 20 21 21 21 21 22 22 22 23 23 23 24 24 23 23 25 27 27 27
7 5 5 5 5 6 6 7 7 7 8 8 8 8 9 9 10 10 11 11 12 12 13 12 12 13 14 15 17 18 18 17 17 17 17 18 20 22 22 20 19 18 17 17 17 17 18 18 19 20 21 21 21 22 24 27 28 28 27 26 25 24 23 22 21 20 19 20 21 21 22 23 23 24 26 27 26 26 27 27 25 25 26 28 30
4 5 5 6 6 6 7 7 7 8 8 9 10 10 10 11 11 11 12 12 12 13 13 13 13 15 16 17 18 18 18 17 17 17 17 18 20 22 23 22 21 20 20 19 19 19 19 20 20 21 22 22 23 23 25 26 27 27 26 25 24 23 22 22 22 22 22 24 26 27 28 28 29 30 32 33 32 30 29 29 28 27 28 31 32
5 5 5 6 6 6 7 7 7 8 10 10 10 10 11 11 11 12 12 12 13 13 14 15 15 17 18 18 18 18 18 18 17 17 17 17 18 20 21 22 22 22 22 21 21 21 21 21 22 22 23 24 24 25 25 25 24 24 23 23 22 21 21 22 24 26 28 29 31 32 32 33 34 35 35 37 37 34 33 33 31 29 31 34 33
5 5 5 6 6 6 7 7 8 9 9 10 10 11 11 11 12 12 13 14 14 15 15 16 17 17 17 18 19 19 18 18 17 17 17 18 18 19 20 21 22 22 22 23 23 23 23 24 24 24 24 25 25 25 25 24 22 22 22 22 22 22 23 24 26 28 30 31 33 34 34 34 35 35 35 36 37 36 37 37 35 34 35 37 35
5 5 5 6 6 6 6 7 8 8 10 10 11 11 11 12 12 13 14 15 15 15 16 17 17 18 18 19 19 19 19 18 18 18 19 19 19 18 19 20 21 21 21 23 24 25 25 25 25 25 25 26 25 25 24 23 22 22 22 23 24 25 26 27 28 29 30 32 34 34 34 35 35 35 35 35 36 37 38 38 38 37 37 36 34
6 5 5 5 5 6 7 7 7 9 10 10 10 11 12 13 14 15 15 16 16 16 17 17 18 18 19 19 19 19 19 19 19 19 19 19 19 19 19 19 20 21 22 23 24 24 25 25 26 26 26 25 25 25 24 25 25 25 25 26 27 28 28 29 30 31 31 31 33 34 35 35 35 35 35 35 36 36 37 39 39 39 35 33 32
Wind_Direction
211 212 212 213 214 216 219 221 222 224 226 227 228 231 233 235 237 239 238 236 235 235 237 241 245 251 258 263 265 265 262 258 257 259 262 262 263 266 266 264 264 265 267 269 266 264 266 270 275 282 288 285 284 289 294 293 289 291 298 303 304 306 307 294 268 286 307 318 323 325 329 328 323 325 327 327 331 334 336 339 340 338 337 336 334
212 214 214 214 215 218 220 222 222 224 225 226 228 231 234 237 236 236 236 234 234 237 240 242 247 252 258 263 265 268 269 266 262 260 262 263 264 266 268 269 267 266 269 270 268 265 266 269 272 279 289 289 285 287 293 295 290 288 292 298 302 303 303 300 288 287 301 312 318 318 321 322 319 321 325 325 328 332 334 339 341 342 344 344 343
215 216 216 216 217 219 221 222 224 224 224 224 226 228 231 235 236 235 236 236 237 242 246 246 247 250 256 260 261 264 266 264 260 257 258 262 266 268 271 274 273 272 272 273 274 272 270 270 271 276 285 287 286 287 290 294 295 292 292 294 296 299 301 302 295 287 293 303 310 312 315 317 315 317 322 322 324 325 328 333 338 341 345 347 347
219 218 218 219 219 220 222 223 224 225 225 224 225 227 229 230 233 236 237 238 241 246 250 248 246 246 251 255 256 259 261 258 258 258 258 260 265 269 272 274 275 276 276 277 278 278 277 275 275 278 283 284 285 287 289 294 298 299 299 297 293 293 296 299 298 291 288 293 301 306 310 311 311 314 318 318 319 320 321 325 329 332 336 340 341
222 222 221 221 221 222 224 225 226 227 227 227 226 227 228 229 232 235 238 240 242 246 249 250 248 246 249 253 254 256 257 257 257 259 260 261 263 267 270 272 273 274 276 279 280 281 280 280 281 284 286 285 285 286 289 294 298 300 302 301 298 295 293 294 296 294 287 286 293 300 303 305 306 310 313 314 315 317 318 320 323 325 328 331 333
226 223 221 221 222 224 225 226 228 229 231 231 229 229 229 230 232 235 237 240 241 244 247 250 251 250 252 255 257 258 258 257 258 260 262 261 261 264 267 270 273 273 275 277 279 281 281 281 284 286 286 287 288 288 290 294 296 297 298 300 300 298 296 295 295 294 290 287 289 294 297 300 302 305 309 310 310 311 314 316 319 322 323 325 327
225 221 221 222 223 225 226 227 230 232 234 235 233 232 232 234 236 239 241 243 243 245 248 250 252 254 257 259 260 262 261 259 259 260 262 262 262 263 265 268 271 273 275 276 277 280 281 282 282 283 283 286 287 290 291 292 295 295 295 296 297 296 295 295 296 294 292 290 289 290 293 297 299 301 306 308 306 307 309 311 314 318 321 322 322
219 216 218 219 221 225 226 228 229 232 236 238 238 237 236 238 241 243 245 247 248 249 248 249 253 258 261 261 262 263 264 262 262 262 262 263 262 264 266 268 270 273 275 276 277 278 279 280 280 280 281 283 285 289 291 293 296 297 297 298 297 296 295 295 296 295 292 290 289 290 293 295 297 300 305 307 306 308 311 308 305 310 316 317 318
207 207 211 212 218 223 223 223 225 227 232 238 241 243 243 243 245 246 248 248 248 250 249 249 253 259 261 261 261 263 263 264 265 266 265 265 265 266 268 269 271 273 275 277 278 278 278 278 279 279 281 282 284 286 288 290 293 294 297 300 299 298 297 296 295 294 293 291 290 292 294 295 298 302 304 306 307 309 311 306 302 307 311 311 314
195 200 208 211 215 216 206 210 219 221 222 228 236 242 246 248 248 248 249 249 248 247 248 248 249 254 258 260 260 260 262 264 267 268 268 268 269 270 270 271 272 273 275 277 278 280 281 281 283 284 284 285 286 287 287 288 289 290 293 295 296 296 295 294 293 292 291 289 289 293 292 292 298 300 300 304 308 307 307 305 303 307 309 308 311
209 222 230 229 232 245 235 227 226 222 221 225 230 232 235 246 255 252 246 245 245 242 242 244 246 248 251 253 254 256 259 263 266 269 270 269 269 269 271 273 274 274 274 276 278 281 283 284 286 288 287 288 289 291 291 291 290 291 291 291 291 290 288 287 287 287 286 283 285 288 285 286 294 298 297 301 305 304 305 305 303 303 304 302 303
180 203 226 237 245 256 251 245 240 234 231 233 235 234 229 233 255 262 251 242 239 238 238 240 242 244 245 246 249 252 257 261 265 268 269 268 267 267 268 271 273 274 275 276 277 279 281 283 286 288 289 291 292 292 293 294 295 294 294 294 292 289 286 282 281 281 280 278 279 281 281 281 287 292 294 297 300 302 303 303 301 299 297 294 291
120 132 149 155 139 153 203 229 235 236 239 241 245 247 237 232 243 259 261 252 241 236 238 240 241 243 244 247 250 253 257 261 263 266 269 270 268 265 264 265 268 270 273 274 275 277 278 281 283 285 288 290 290 292 293 296 298 298 298 297 296 295 293 289 285 282 280 277 274 275 280 281 281 287 294 295 295 296 297 299 300 299 296 293 291
94 93 90 89 93 104 120 138 150 163 174 206 240 257 256 246 242 245 253 254 245 238 237 238 241 243 245 247 251 254 257 260 263 265 268 271 271 267 263 262 262 265 268 270 273 274 276 278 279 282 286 288 290 292 294 296 299 300 299 300 300 300 300 298 296 292 287 282 276 277 283 285 282 288 296 296 291 291 292 294 296 296 294 293 292
73 77 79 81 84 86 87 85 85 85 88 93 94 82 48 291 253 242 243 244 241 238 235 234 238 241 244 246 248 252 255 259 263 267 269 271 272 269 266 264 262 262 264 267 270 273 275 276 277 280 284 287 290 293 296 298 299 299 300 301 302 302 301 300 300 298 296 292 286 286 290 291 290 292 297 296 293 292 293 292 292 293 292 293 294
62 66 70 74 80 84 84 83 82 81 80 81 81 77 67 55 35 297 265 250 241 234 226 223 227 231 236 241 244 249 255 258 261 264 267 271 273 273 272 269 267 266 267 270 272 274 275 276 277 281 284 288 292 296 297 298 296 296 297 296 296 296 294 292 293 294 295 294 293 292 293 295 295 295 296 295 293 294 294 290 289 289 288 289 291
66 65 66 68 72 77 81 80 75 73 72 69 68 69 65 62 54 358 310 281 265 250 226 210 209 212 218 227 235 241 245 248 250 251 253 257 262 267 271 271 272 273 274 277 277 277 279 279 280 283 285 288 294 295 295 293 291 291 291 290 290 289 287 286 289 292 293 294 294 294 294 295 295 295 295 294 292 292 288 283 286 287 283 280 282
69 69 67 66 67 68 71 67 60 58 61 59 56 53 48 47 35 345 311 292 293 294 272 208 204 223 224 228 233 237 240 242 243 242 240 240 243 250 257 261 264 268 271 274 276 277 278 279 281 285 288 290 291 291 289 288 287 289 291 291 290 288 288 292 297 298 297 296 296 295 295 294 293 292 290 288 288 289 283 279 285 285 276 270 272
65 70 69 68 68 67 68 66 58 57 61 64 61 54 40 25 9 336 306 284 270 265 258 234 189 183 296 281 267 254 250 252 249 244 241 243 244 247 253 256 259 264 269 271 271 272 275 281 287 290 290 288 285 284 283 283 285 287 290 291 289 289 295 301 303 302 300 296 294 293 291 290 288 286 285 284 286 287 283 282 284 279 270 269 271
59 63 65 65 66 66 67 64 58 59 67 72 70 65 54 37 24 323 279 263 239 232 240 228 174 124 75 36 9 348 333 350 341 286 259 260 262 261 266 271 273 276 279 279 278 279 280 283 285 283 280 280 281 284 286 287 289 290 291 290 290 295 302 304 300 297 295 291 289 288 286 285 284 282 282 284 285 286 287 287 286 280 273 270 269
54 57 57 58 59 61 63 63 61 62 66 70 70 69 66 64 71 91 199 220 202 185 164 136 120 101 89 90 85 71 60 57 52 44 46 53 43 26 349 330 313 299 297 300 302 303 302 299 296 294 292 293 294 296 297 296 294 294 294 296 299 303 305 301 296 294 290 286 285 283 282 282 282 282 282 284 286 288 290 291 289 286 280 272 268
48 51 53 54 54 53 54 55 57 58 57 59 64 65 62 62 68 79 91 103 110 108 104 105 103 94 87 89 88 77 66 59 48 36 34 42 52 57 54 39 27 5 348 350 348 344 335 323 315 310 304 302 301 302 302 300 298 296 297 299 302 302 299 295 294 291 287 284 283 280 280 279 279 280 282 283 285 288 290 293 293 291 287 283 276
43 46 49 53 53 52 50 46 46 48 46 45 51 55 54 54 57 63 69 74 78 80 78 80 86 86 79 77 80 76 66 60 43 27 29 38 46 51 51 43 36 31 20 5 350 338 328 318 311 306 303 303 304 304 304 303 301 300 299 299 297 295 293 291 289 286 284 285 284 281 281 280 279 280 281 282 285 289 292 294 294 293 292 291 287
47 45 46 48 50 51 50 45 41 40 38 36 39 42 44 45 48 50 53 56 58 59 57 56 58 59 57 55 60 60 58 59 57 43 37 37 35 34 32 27 19 10 0 350 339 332 325 318 313 309 307 307 306 305 306 306 305 302 299 298 295 292 291 289 287 286 286 287 286 285 286 285 283 283 285 287 290 292 292 293 292 292 291 291 291
47 45 41 39 40 42 45 44 41 38 35 32 32 34 35 37 40 40 41 44 45 42 40 39 37 35 32 30 30 32 35 40 40 33 27 21 15 13 11 10 7 360 352 345 340 336 330 324 318 313 310 310 310 311 314 315 315 314 312 311 308 304 299 297 297 297 296 294 293 292 293 295 293 291 292 294 294 293 293 293 293 293 293 292 292
36 38 36 32 28 27 29 32 32 31 32 31 30 31 30 31 35 35 33 34 33 30 28 28 25 22 19 17 18 21 24 26 23 16 11 6 2 360 357 355 356 353 349 345 342 339 336 332 328 324 326 330 333 336 340 343 344 342 341 340 334 328 324 321 318 314 307 303 301 300 301 304 304 303 301 300 297 297 298 297 296 296 296 295 293
24 26 29 30 27 25 25 23 20 19 22 23 24 27 27 26 30 32 31 29 26 23 22 20 16 12 8 6 9 14 20 23 17 9 0 352 346 344 343 344 345 346 346 346 346 346 347 348 351 358 5 8 7 4 3 3 2 359 354 349 344 341 340 337 331 323 317 311 308 307 309 310 311 312 312 308 304 304 304 301 297 297 298 297 291
23 23 25 29 33 35 33 29 25 22 22 21 21 23 24 24 28 33 33 27 21 18 18 16 13 7 360 356 357 1 8 13 11 3 355 348 341 337 334 334 337 339 342 346 349 353 356 1 7 8 9 11 13 13 11 8 5 1 355 350 347 346 347 346 341 334 328 321 314 311 312 312 312 313 314 312 310 312 311 306 298 296 297 295 288
30 33 34 36 39 35 32 32 32 30 27 25 25 25 22 18 18 22 24 20 14 10 9 9 7 4 359 356 354 352 354 358 359 355 351 347 343 338 333 331 332 334 338 344 351 356 359 5 11 12 10 11 12 11 10 5 1 357 353 352 351 350 350 352 349 343 339 335 327 320 317 314 311 311 311 310 310 313 314 308 302 300 297 290 281
39 41 41 41 38 32 31 32 30 25 20 16 13 12 10 8 6 2 359 357 353 351 352 353 352 351 352 354 354 353 350 345 341 342 346 348 348 346 340 332 327 328 333 340 349 359 8 17 24 22 19 18 13 7 2 356 350 347 344 343 343 341 340 342 342 340 340 341 339 334 330 325 320 317 315 311 310 314 314 310 305 302 296 286 279
43 42 44 43 38 33 34 35 32 28 23 14 5 358 353 353 356 356 350 342 333 329 326 326 330 336 340 339 337 341 346 343 337 334 340 346 349 352 353 347 334 326 332 345 355 10 27 39 40 32 27 22 12 4 360 354 349 346 342 339 338 337 335 333 333 334 335 336 337 337 337 334 329 325 321 316 313 313 313 311 307 302 294 287 280
44 40 39 42 44 41 36 31 28 26 23 18 13 7 1 356 354 356 355 348 340 333 325 319 317 320 326 330 330 329 332 339 343 342 344 347 347 351 358 0 352 346 6 17 17 30 47 58 49 32 23 18 10 5 2 356 351 347 343 340 338 337 335 333 330 330 331 331 331 332 333 332 330 327 324 321 317 314 311 309 306 300 296 291 284
43 40 32 30 37 40 32 20 13 12 12 11 9 6 3 358 352 350 351 351 348 345 343 343 341 334 329 332 336 334 330 331 337 341 344 346 345 347 353 356 353 353 8 21 30 39 46 48 36 18 12 11 7 2 359 355 350 346 342 339 336 335 335 334 332 330 329 328 327 327 328 328 328 327 325 322 320 318 313 309 306 301 294 289 285
29 33 31 25 26 31 21 2 350 349 354 358 358 356 354 352 347 343 344 347 347 345 344 345 345 347 347 344 344 344 339 334 334 336 338 340 339 340 342 342 340 345 3 22 31 30 26 19 9 2 2 3 0 357 354 351 348 345 341 337 334 334 334 334 333 331 328 327 328 327 326 326 326 326 324 322 320 319 315 310 307 303 298 293 293
13 14 18 18 17 16 2 344 335 333 335 341 346 346 343 343 341 337 337 341 343 344 345 344 339 337 339 340 341 342 342 341 338 337 338 339 336 331 329 328 329 339 4 13 9 4 359 353 348 348 351 353 353 351 348 346 344 342 339 335 332 332 332 332 331 328 326 326 326 325 324 323 323 324 323 320 319 318 315 311 308 305 304 303 302
8 5 3 358 349 347 344 335 326 322 322 326 331 331 332 334 332 327 330 337 338 336 338 340 337 331 326 329 334 335 335 337 337 336 338 342 339 332 323 318 319 328 336 339 339 337 336 336 336 336 338 341 344 344 342 341 339 337 335 333 330 328 327 327 325 323 323 323 322 321 321 321 320 321 322 319 317 317 316 315 313 310 308 307 305
4 360 358 354 347 341 334 324 318 318 320 320 321 324 326 327 325 322 328 334 333 328 331 336 338 335 330 331 336 336 331 328 328 326 325 332 339 332 316 303 304 311 313 314 318 318 319 324 328 330 333 335 337 338 337 336 335 334 332 330 327 324 322 321 319 318 318 317 318 319 320 319 318 320 320 317 317 319 320 320 319 316 312 310 308
356 351 351 350 345 337 330 326 326 328 327 322 322 325 323 320 321 324 328 330 326 323 325 329 332 334 335 337 341 340 334 327 324 320 317 321 330 326 308 294 293 300 305 306 306 304 306 314 319 322 327 331 333 333 331 331 331 330 329 327 325 323 322 319 317 316 314 314 315 316 316 316 316 318 317 315 314 316 317 317 318 317 315 313 309
349 348 347 344 338 335 333 331 330 329 325 324 328 329 321 315 318 323 324 325 322 319 320 322 323 326 332 337 340 342 341 339 337 334 330 326 325 322 311 299 293 293 297 299 298 297 301 308 313 317 323 328 329 328 327 327 328 327 326 325 323 322 320 318 316 315 313 313 313 313 313 314 314 315 314 313 311 311 310 310 311 311 309 307 305
344 346 346 340 336 335 334 330 326 326 328 327 329 329 323 318 318 317 317 318 317 317 320 322 320 323 328 333 337 340 341 340 338 334 331 327 324 321 316 309 301 296 294 292 289 290 298 304 308 314 321 325 326 326 325 326 326 326 325 323 320 318 316 315 314 313 311 310 310 311 312 313 312 312 312 312 311 310 308 307 306 304 302 301 301
342 344 344 339 334 334 334 330 326 327 328 326 324 325 323 319 318 319 321 325 324 322 321 317 315 318 325 329 334 336 335 334 332 330 328 327 325 322 317 312 307 302 296 291 286 289 297 301 304 310 317 321 323 325 325 326 326 325 323 321 317 313 311 311 311 311 309 308 308 309 310 310 310 310 309 309 310 310 308 305 304 301 298 296 297
339 341 341 339 335 332 330 327 325 325 326 323 321 320 320 321 323 323 323 324 321 318 315 313 314 319 325 328 330 331 330 330 330 329 326 324 322 319 317 312 306 300 294 288 283 287 295 298 300 306 312 316 319 322 324 325 325 323 321 319 314 308 306 306 307 308 308 306 306 306 306 307 307 306 305 306 308 308 306 305 303 300 296 293 292
329 331 330 328 328 326 323 322 321 321 320 319 317 317 318 319 319 319 319 319 318 317 316 316 317 319 322 324 327 329 329 329 329 327 326 325 322 317 314 310 307 305 298 288 280 282 289 292 296 302 307 310 314 318 320 322 322 321 320 317 311 305 302 301 301 304 305 304 303 303 303 303 303 303 302 302 303 303 302 302 301 299 296 292 290
321 323 321 319 321 322 321 321 320 319 318 318 317 317 317 317 317 318 319 318 317 316 315 315 316 317 319 322 327 329 329 328 326 323 322 324 324 321 316 312 310 308 301 289 281 281 287 290 294 299 303 306 311 315 317 318 318 317 317 314 309 304 301 298 297 299 301 302 302 302 301 301 301 299 298 299 300 300 299 299 299 299 296 293 290
326 332 334 333 334 329 324 324 324 321 320 321 319 318 319 320 319 319 319 318 317 316 315 314 315 317 319 321 322 323 322 320 318 316 316 318 322 325 326 323 319 313 304 295 290 291 295 297 299 301 303 305 309 311 312 312 312 313 312 311 307 303 301 300 299 299 299 300 300 299 299 299 299 297 296 297 297 296 295 294 295 296 296 294 291
346 6 7 353 346 339 332 332 330 326 328 334 335 332 328 324 320 318 317 316 315 314 313 313 315 317 318 318 316 315 314 313 311 311 311 313 317 322 324 324 322 317 312 308 307 306 305 305 305 305 305 306 307 308 308 307 307 308 309 308 306 303 302 304 305 302 299 298 298 297 295 295 295 294 294 294 293 292 291 290 289 288 288 289 290
25 27 10 357 352 346 341 338 335 333 339 345 342 334 327 322 319 319 318 316 315 314 313 313 313 314 315 315 313 312 312 310 308 308 308 310 314 319 321 322 321 318 316 314 313 312 311 310 308 307 307 307 308 309 307 305 305 306 307 306 304 302 303 306 306 303 301 301 300 298 295 294 293 292 293 293 292 289 287 286 286 284 285 287 288
44 27 11 5 2 354 348 345 341 339 342 343 338 331 326 323 321 321 319 318 318 316 313 312 311 311 312 313 313 313 312 311 309 308 309 310 313 317 320 321 322 321 318 316 314 313 312 311 310 309 309 308 309 309 308 307 306 306 305 303 302 301 302 304 304 303 303 303 302 300 298 297 295 295 294 294 293 290 287 286 286 285 286 288 287
45 33 16 9 5 358 352 349 345 342 342 340 334 330 329 327 324 324 322 320 318 315 313 312 313 313 313 315 316 316 314 313 312 312 313 314 315 317 319 321 321 320 319 317 316 315 314 313 312 311 311 309 309 308 308 307 307 306 304 303 302 301 301 301 301 301 302 303 302 302 301 299 298 298 296 295 293 292 290 289 288 287 288 289 286
29 34 23 14 8 0 354 350 347 344 341 338 335 333 333 331 329 327 324 321 319 317 316 315 316 316 316 317 318 317 316 314 314 316 316 317 317 318 319 319 319 319 319 318 318 317 316 315 314 313 311 310 308 308 307 307 306 305 304 302 301 300 300 299 299 300 301 302 302 302 301 299 298 297 295 294 293 291 290 289 288 288 287 285 282
20 28 25 15 8 3 356 350 347 344 341 340 338 336 334 332 330 327 325 322 320 319 318 317 317 317 317 317 318 318 317 315 315 317 319 320 320 321 320 319 319 319 319 318 318 317 316 315 313 312 311 310 309 308 307 306 305 304 302 300 299 299 299 299 299 299 299 300 301 300 299 298 296 295 294 294 292 290 288 288 288 286 283 279 277